Weather History for KNQA - January, 2014

Change the Weather History Date:

Wednesday, January 15, 2014

  Actual Average Record
Temperature  
Mean Temperature 30 °F -  
Max Temperature 39 °F 47 °F 42 °F (2015)
Min Temperature 21 °F 30 °F 26 °F (2015)
Degree Days  
Heating Degree Days 35    
Moisture  
Dew Point 18 °F    
Average Humidity 57    
Maximum Humidity 86    
Minimum Humidity 44    
Precipitation  
Precipitation 0.00 in - - ()
Sea Level Pressure  
Sea Level Pressure 30.18 in    
Wind  
Wind Speed 6 mph (NW)    
Max Wind Speed 15 mph    
Max Gust Speed -    
Visibility 10 miles    
Events      
Averages and records for this station are not official NWS values.
T = Trace of Precipitation, MM = Missing Value Source: NWS Daily Summary

Daily Weather History Graph

Daily Weather History Graph

Search for Another Location

Airport or City:

Trip Planner

Search our weather history database for the weather conditions in past years. The results will help you decide how hot, cold, wet, or windy it might be!

Date:

Astronomy

Jan. 15, 2014 Rise Set
Actual Time 7:07 AM CST 5:10 PM CST
Civil Twilight 6:40 AM CST 5:38 PM CST
Nautical Twilight 6:08 AM CST 6:09 PM CST
Astronomical Twilight 5:38 AM CST 6:39 PM CST
Moon 5:05 PM CST (1/15) 6:25 AM CST (1/15)
Length of Visible Light 10h 57m
Length of Day
10h 02m
Full, 100% of the Moon is Illuminated
Jan 15
Full
Jan 15
Full
Jan 23
Last Quarter
Jan 30
New
Feb 6
First Quarter

Hourly Weather History & Observations

Time (CST) Temp. Windchill Dew Point Humidity Pressure Visibility Wind Dir Wind Speed Gust Speed Precip Events Conditions
12:52 AM 39.2 °F 35.0 °F 21.2 °F 49% 30.13 in 10.0 mi NNW 5.8 mph - N/A   Mostly Cloudy
1:55 AM 39.2 °F - 19.4 °F 45% 30.14 in 10.0 mi Calm Calm - N/A   Mostly Cloudy
2:15 AM 37.4 °F 33.8 °F 21.2 °F 52% 30.14 in 10.0 mi NW 4.6 mph - N/A   Clear
2:35 AM 37.4 °F 33.8 °F 19.4 °F 48% 30.15 in 10.0 mi NW 4.6 mph - N/A   Clear
2:55 AM 35.6 °F 30.7 °F 21.2 °F 56% 30.15 in 10.0 mi WNW 5.8 mph - N/A   Clear
3:15 AM 35.6 °F 30.7 °F 21.2 °F 56% 30.16 in 10.0 mi NW 5.8 mph - N/A   Clear
3:35 AM 35.6 °F 32.8 °F 21.2 °F 56% 30.16 in 10.0 mi NW 3.5 mph - N/A   Clear
3:55 AM 35.6 °F 32.8 °F 21.2 °F 56% 30.16 in 10.0 mi NW 3.5 mph - N/A   Clear
4:15 AM 33.8 °F 28.6 °F 19.4 °F 56% 30.16 in 10.0 mi NNW 5.8 mph - N/A   Clear
4:35 AM 33.8 °F 28.6 °F 19.4 °F 56% 30.16 in 10.0 mi NW 5.8 mph - N/A   Clear
4:55 AM 33.8 °F 28.6 °F 17.6 °F 52% 30.16 in 10.0 mi NW 5.8 mph - N/A   Clear
5:30 AM 33.8 °F 27.7 °F 17.6 °F 52% 30.16 in 10.0 mi NW 6.9 mph - N/A   Clear
5:50 AM 32.0 °F 27.5 °F 17.6 °F 55% 30.17 in 10.0 mi NW 4.6 mph - N/A   Clear
6:50 AM 30.2 °F 24.3 °F 17.6 °F 60% 30.18 in 10.0 mi West 5.8 mph - N/A   Clear
7:50 AM 32.0 °F 25.6 °F 17.6 °F 55% 30.19 in 10.0 mi WNW 6.9 mph - N/A   Clear
8:50 AM 33.8 °F 24.8 °F 19.4 °F 56% 30.22 in 10.0 mi NW 12.7 mph - N/A   Clear
9:50 AM 33.8 °F 24.3 °F 15.8 °F 48% 30.25 in 10.0 mi NNW 13.8 mph - N/A   Partly Cloudy
10:50 AM 33.8 °F 25.3 °F 15.8 °F 48% 30.23 in 10.0 mi North 11.5 mph - N/A   Partly Cloudy
11:50 AM 35.6 °F 26.2 °F 15.8 °F 44% 30.21 in 10.0 mi NW 15.0 mph - N/A   Partly Cloudy
12:50 PM 37.4 °F 29.3 °F 17.6 °F 45% 30.19 in 10.0 mi NW 12.7 mph - N/A   Scattered Clouds
1:50 PM 35.6 °F 28.0 °F 17.6 °F 48% 30.18 in 10.0 mi NW 10.4 mph - N/A   Scattered Clouds
2:50 PM 35.6 °F 27.5 °F 15.8 °F 44% 30.19 in 10.0 mi WNW 11.5 mph - N/A   Scattered Clouds
3:50 PM 35.6 °F 28.0 °F 17.6 °F 48% 30.20 in 10.0 mi WNW 10.4 mph - N/A   Scattered Clouds
4:50 PM 33.8 °F 25.8 °F 15.8 °F 48% 30.20 in 10.0 mi WNW 10.4 mph - N/A   Partly Cloudy
5:50 PM 30.2 °F - 17.6 °F 60% 30.20 in 10.0 mi Calm Calm - N/A   Clear
6:57 PM 24.8 °F - 19.4 °F 80% 30.20 in 10.0 mi Calm Calm - N/A   Clear
7:52 PM 24.8 °F - 17.6 °F 74% 30.19 in 10.0 mi ESE 2.3 mph - N/A   Clear
8:52 PM 24.8 °F - 17.6 °F 74% 30.18 in 10.0 mi Calm Calm - N/A   Clear
9:56 PM 21.2 °F - 17.6 °F 86% 30.17 in 10.0 mi Calm Calm - N/A   Clear
10:57 PM 21.2 °F 16.4 °F 17.6 °F 86% 30.14 in 10.0 mi ESE 3.5 mph - N/A   Clear
11:51 PM 23.0 °F 18.4 °F 17.6 °F 80% 30.13 in 10.0 mi ESE 3.5 mph - N/A   Clear